Tracking 30995 objects as of 7-Jul-2025
HD Live streaming from Space Station
objects crossing your sky now

STARLINK-2563

Track STARLINK-2563 now!
10-day predictions
STARLINK-2563 is classified as:


NORAD ID: 48410
Int'l Code: 2021-038BK
Perigee: 553.4 km
Apogee: 555.4 km
Inclination: 53.1 °
Period: 95.6 minutes
Semi major axis: 6925 km
RCS: Unknown
Launch date: May 4, 2021
Source: United States (US)
Launch site: AIR FORCE EASTERN TEST RANGE (AFETR)
Your satellite tracking list
Your tracking list is empty




NASA's NSSDC Master Catalog

Two Line Element Set (TLE):
1 48410U 21038BK  25187.59939555 -.00000427  00000-0 -97998-5 0  9996
2 48410  53.0570 321.3620 0001417  99.3545 260.7604 15.06389759230850
Source of the keplerian elements: AFSPC